CW1828 Weather Reports


Display with metric or nautical units.
time (UTC)temp
F
wind
direction
speed
MPH
gust
MPH
rain 1hr
in
rain 24hr
in
rain mn
in
humidity
%
barometer
mb
20260507064304 69 223 7.0 12.0 0.00 0.00 0.00 29 1011.9
20260507063804 69 225 7.0 12.0 0.00 0.00 0.00 29 1011.9
20260507063304 69 223 7.0 10.0 0.00 0.00 0.00 29 1012.0
20260507061803 70 222 7.0 10.0 0.00 0.00 0.00 28 1012.0
20260507061304 70 228 7.0 12.0 0.00 0.00 0.00 28 1012.0
20260507060804 70 234 7.0 10.0 0.00 0.00 0.00 28 1012.0
20260507055804 71 240 7.0 12.0 0.00 0.00 0.00 27 1012.0
20260507054304 70 252 5.0 8.0 0.00 0.00 0.00 26 1012.1
20260507053804 70 237 6.0 10.0 0.00 0.00 0.00 26 1012.1
20260507053304 70 244 6.0 9.0 0.00 0.00 0.00 27 1012.1
20260507052804 70 239 7.0 10.0 0.00 0.00 0.00 27 1012.1
20260507051803 70 227 8.0 12.0 0.00 0.00 0.00 27 1012.1
20260507051304 71 230 7.0 10.0 0.00 0.00 0.00 27 1012.2
20260507045803 70 242 7.0 12.0 0.00 0.00 0.00 28 1012.1
20260507045306 70 237 8.0 12.0 0.00 0.00 0.00 28 1012.1
20260507044804 70 239 7.0 12.0 0.00 0.00 0.00 28 1012.1
20260507043304 70 237 8.0 10.0 0.00 0.00 0.00 29 1012.0
20260507042804 70 229 7.0 12.0 0.00 0.00 0.00 30 1012.0
20260507042306 70 228 8.0 12.0 0.00 0.00 0.00 30 1012.0
20260507041804 70 224 9.0 12.0 0.00 0.00 0.00 30 1012.0
20260507041304 69 225 7.0 12.0 0.00 0.00 0.00 30 1011.9
20260507040804 69 230 7.0 9.0 0.00 0.00 0.00 31 1011.9
20260507040304 69 227 7.0 12.0 0.00 0.00 0.00 31 1011.9
20260507035804 69 218 8.0 10.0 0.00 0.00 0.00 31 1011.8
20260507035306 69 221 7.0 12.0 0.00 0.00 0.00 32 1011.8
20260507034804 70 221 9.0 12.0 0.00 0.00 0.00 32 1011.8
20260507034304 70 218 7.0 12.0 0.00 0.00 0.00 32 1011.7
20260507033804 70 217 7.0 9.0 0.00 0.00 0.00 31 1011.7
20260507033304 70 217 7.0 10.0 0.00 0.00 0.00 31 1011.5
20260507032804 70 227 6.0 9.0 0.00 0.00 0.00 32 1011.5
20260507032306 70 219 7.0 12.0 0.00 0.00 0.00 32 1011.5
20260507031303 70 216 7.0 10.0 0.00 0.00 0.00 32 1011.4
20260507030804 70 214 9.0 12.0 0.00 0.00 0.00 32 1011.3
20260507030304 71 208 9.0 12.0 0.00 0.00 0.00 32 1011.2
20260507025803 71 231 6.0 13.0 0.00 0.00 0.00 32 1011.2
20260507024804 71 217 8.0 12.0 0.00 0.00 0.00 30 1011.2
20260507024304 72 206 9.0 13.0 0.00 0.00 0.00 29 1011.1
20260507023803 72 243 6.0 10.0 0.00 0.00 0.00 29 1011.0
20260507023304 73 218 6.0 9.0 0.00 0.00 0.00 29 1011.0
20260507022804 73 211 6.0 12.0 0.00 0.00 0.00 28 1011.0
20260507022306 74 195 8.0 10.0 0.00 0.00 0.00 27 1011.1
20260507021803 74 197 3.0 5.0 0.00 0.00 0.00 24 1011.1
20260507021304 75 326 3.0 7.0 0.00 0.00 0.00 22 1011.1
20260507020804 75 327 4.0 6.0 0.00 0.00 0.00 21 1011.1
20260507020304 75 324 3.0 6.0 0.00 0.00 0.00 21 1011.1
20260507015306 76 354 5.0 7.0 0.00 0.00 0.00 20 1011.0
20260507014804 76 345 7.0 12.0 0.00 0.00 0.00 20 1011.0
20260507013804 77 335 5.0 8.0 0.00 0.00 0.00 19 1011.0
20260507013304 77 326 7.0 9.0 0.00 0.00 0.00 19 1011.0
20260507012804 77 348 8.0 12.0 0.00 0.00 0.00 18 1011.1
20260507012306 77 351 7.0 12.0 0.00 0.00 0.00 19 1011.0
20260507011803 78 340 6.0 9.0 0.00 0.00 0.00 17 1011.1
20260507011304 78 320 8.0 13.0 0.00 0.00 0.00 18 1011.0
20260507010804 78 0 6.0 12.0 0.00 0.00 0.00 19 1010.9
20260507010304 78 8 5.0 9.0 0.00 0.00 0.00 20 1010.9
20260507005804 78 127 1.0 5.0 0.00 0.00 0.00 20 1010.8
20260507005305 78 90 2.0 5.0 0.00 0.00 0.00 20 1010.8
20260507004304 78 335 5.0 9.0 0.00 0.00 0.00 20 1011.0
20260507003804 78 350 8.0 13.0 0.00 0.00 0.00 20 1011.0
20260507003304 78 320 7.0 10.0 0.00 0.00 0.00 20 1010.9
20260507002803 78 342 7.0 13.0 0.00 0.00 0.00 20 1010.9
20260507002306 79 39 2.0 5.0 0.00 0.00 0.00 20 1011.0
20260507001803 79 14 4.0 8.0 0.00 0.00 0.00 20 1011.0
20260507001304 79 353 3.0 7.0 0.00 0.00 0.00 20 1011.0
20260507000804 79 27 4.0 8.0 0.00 0.00 0.00 20 1011.0
20260507000306 78 22 6.0 12.0 0.00 0.00 0.00 21 1010.9
20260506235803 78 321 1.0 9.0 0.00 0.00 0.00 20 1010.9
20260506235306 78 349 7.0 12.0 0.00 0.00 0.00 20 1011.0
20260506234804 78 331 3.0 10.0 0.00 0.00 0.00 21 1010.9
20260506234304 78 94 3.0 7.0 0.00 0.00 0.00 21 1010.8
20260506233303 78 11 5.0 12.0 0.00 0.00 0.00 21 1011.0
20260506232804 78 357 9.0 14.0 0.00 0.00 0.00 21 1011.0
20260506231804 78 24 4.0 7.0 0.00 0.00 0.00 21 1011.0
20260506231304 78 313 3.0 8.0 0.00 0.00 0.00 22 1011.1
20260506230803 78 22 5.0 8.0 0.00 0.00 0.00 22 1011.1
20260506230304 78 309 2.0 8.0 0.00 0.00 0.00 22 1011.1
20260506225804 77 346 7.0 14.0 0.00 0.00 0.00 22 1011.3
20260506225306 77 307 2.0 7.0 0.00 0.00 0.00 22 1011.3
20260506223803 77 24 5.0 10.0 0.00 0.00 0.00 22 1011.4
20260506223304 77 340 7.0 17.0 0.00 0.00 0.00 22 1011.5
20260506222306 77 334 8.0 15.0 0.00 0.00 0.00 22 1011.5
20260506221804 77 7 10.0 15.0 0.00 0.00 0.00 22 1011.7
20260506221304 77 347 7.0 14.0 0.00 0.00 0.00 23 1011.7
20260506220804 77 346 7.0 15.0 0.00 0.00 0.00 23 1011.7
20260506220304 77 1 7.0 14.0 0.00 0.00 0.00 23 1011.9
20260506215804 77 13 6.0 13.0 0.00 0.00 0.00 23 1012.0
20260506215306 77 344 9.0 14.0 0.00 0.00 0.00 23 1012.1
20260506214803 77 328 5.0 12.0 0.00 0.00 0.00 23 1012.0
20260506214304 77 345 7.0 14.0 0.00 0.00 0.00 23 1012.2
20260506213803 76 318 9.0 16.0 0.00 0.00 0.00 23 1012.2
20260506213303 76 350 10.0 13.0 0.00 0.00 0.00 24 1012.3
20260506212804 76 344 10.0 14.0 0.00 0.00 0.00 24 1012.4
20260506212306 76 329 10.0 16.0 0.00 0.00 0.00 24 1012.4
20260506211804 76 357 6.0 9.0 0.00 0.00 0.00 24 1012.5
20260506211303 76 233 4.0 12.0 0.00 0.00 0.00 24 1012.5
20260506210804 76 340 9.0 15.0 0.00 0.00 0.00 24 1012.5
20260506210303 76 330 9.0 16.0 0.00 0.00 0.00 24 1012.6
20260506205804 77 2 6.0 16.0 0.00 0.00 0.00 23 1012.6
20260506205306 78 349 4.0 13.0 0.00 0.00 0.00 23 1012.7
20260506204804 77 153 1.0 6.0 0.00 0.00 0.00 24 1012.6
20260506204303 77 185 5.0 8.0 0.00 0.00 0.00 24 1012.8
20260506203803 76 103 3.0 9.0 0.00 0.00 0.00 24 1012.9
20260506203304 76 5 7.0 13.0 0.00 0.00 0.00 24 1013.0
20260506202306 75 156 2.0 9.0 0.00 0.00 0.00 25 1013.0
20260506201804 75 16 6.0 9.0 0.00 0.00 0.00 25 1013.2
20260506200803 75 46 3.0 12.0 0.00 0.00 0.00 25 1013.2
20260506200304 75 19 5.0 9.0 0.00 0.00 0.00 25 1013.3
20260506195803 75 34 3.0 5.0 0.00 0.00 0.00 25 1013.3
20260506195306 74 70 5.0 9.0 0.00 0.00 0.00 25 1013.5
20260506194803 74 75 2.0 7.0 0.00 0.00 0.00 26 1013.5
20260506194303 73 0 4.0 8.0 0.00 0.00 0.00 26 1013.6
20260506193804 73 21 4.0 10.0 0.00 0.00 0.00 26 1013.6
20260506192804 73 4 6.0 12.0 0.00 0.00 0.00 26 1013.6
20260506192305 73 28 4.0 8.0 0.00 0.00 0.00 26 1013.6
20260506191804 73 24 5.0 10.0 0.00 0.00 0.00 26 1013.7
20260506191304 73 27 3.0 12.0 0.00 0.00 0.00 26 1013.7
20260506190304 73 4 5.0 6.0 0.00 0.00 0.00 26 1013.8
20260506185803 73 11 5.0 9.0 0.00 0.00 0.00 26 1013.9
20260506185306 73 13 3.0 13.0 0.00 0.00 0.00 26 1013.9
20260506184804 73 19 7.0 12.0 0.00 0.00 0.00 26 1014.0
20260506183803 72 7 3.0 12.0 0.00 0.00 0.00 27 1014.1
20260506183303 72 20 4.0 8.0 0.00 0.00 0.00 27 1014.2
20260506182803 72 25 5.0 10.0 0.00 0.00 0.00 28 1014.2
20260506182306 72 103 2.0 5.0 0.00 0.00 0.00 28 1014.2
20260506181804 71 58 3.0 7.0 0.00 0.00 0.00 29 1014.3
20260506181303 71 73 5.0 8.0 0.00 0.00 0.00 29 1014.3
20260506180804 70 122 2.0 8.0 0.00 0.00 0.00 30 1014.3
20260506180304 70 87 5.0 8.0 0.00 0.00 0.00 30 1014.2
20260506175804 69 53 1.0 5.0 0.00 0.00 0.00 30 1014.3
20260506175306 69 348 4.0 10.0 0.00 0.00 0.00 31 1014.3
20260506174804 69 16 2.0 6.0 0.00 0.00 0.00 30 1014.2
20260506174303 69 334 6.0 10.0 0.00 0.00 0.00 30 1014.2
20260506173804 69 337 6.0 10.0 0.00 0.00 0.00 30 1014.2
20260506173304 68 322 4.0 10.0 0.00 0.00 0.00 30 1014.2
20260506172803 68 75 2.0 3.0 0.00 0.00 0.00 30 1014.2
20260506171804 69 38 3.0 8.0 0.00 0.00 0.00 30 1014.1
20260506171304 68 38 2.0 5.0 0.00 0.00 0.00 30 1014.1
20260506170804 68 27 1.0 5.0 0.00 0.00 0.00 31 1014.1
20260506170304 67 64 3.0 7.0 0.00 0.00 0.00 31 1014.0
20260506165804 67 1 3.0 6.0 0.00 0.00 0.00 31 1014.0
20260506164804 67 20 2.0 5.0 0.00 0.00 0.00 31 1014.0
20260506164304 67 352 5.0 8.0 0.00 0.00 0.00 31 1014.0
20260506163804 67 353 3.0 7.0 0.00 0.00 0.00 31 1014.0
20260506163304 67 70 2.0 6.0 0.00 0.00 0.00 31 1014.0
20260506162804 66 7 3.0 9.0 0.00 0.00 0.00 31 1013.9
20260506162306 67 23 3.0 8.0 0.00 0.00 0.00 31 1013.9
20260506161803 67 304 2.0 8.0 0.00 0.00 0.00 30 1013.8
20260506161304 66 330 2.0 3.0 0.00 0.00 0.00 31 1013.8
20260506160804 66 22 2.0 5.0 0.00 0.00 0.00 31 1013.8
20260506160303 65 42 1.0 3.0 0.00 0.00 0.00 32 1013.8
20260506155803 65 47 2.0 3.0 0.00 0.00 0.00 32 1013.7
20260506155306 64 22 2.0 5.0 0.00 0.00 0.00 32 1013.7
20260506154804 64 24 2.0 3.0 0.00 0.00 0.00 34 1013.7
20260506154304 64 345 3.0 6.0 0.00 0.00 0.00 33 1013.7
20260506153804 63 17 2.0 3.0 0.00 0.00 0.00 34 1013.7
20260506153303 63 8 2.0 5.0 0.00 0.00 0.00 34 1013.6
20260506152804 63 0 3.0 5.0 0.00 0.00 0.00 35 1013.6
20260506152306 63 72 2.0 3.0 0.00 0.00 0.00 35 1013.6
20260506151804 63 347 2.0 6.0 0.00 0.00 0.00 36 1013.6
20260506151303 62 38 2.0 3.0 0.00 0.00 0.00 36 1013.6
20260506150804 61 12 1.0 3.0 0.00 0.00 0.00 38 1013.6
20260506150305 61 95 3.0 6.0 0.00 0.00 0.00 37 1013.6
20260506145804 60 97 2.0 5.0 0.00 0.00 0.00 40 1013.7
20260506145305 59 1 2.0 3.0 0.00 0.00 0.00 41 1013.6
20260506144804 58 1 1.0 3.0 0.00 0.00 0.00 42 1013.7
20260506144304 58 1 1.0 3.0 0.00 0.00 0.00 43 1013.7
20260506143304 57 41 2.0 3.0 0.00 0.00 0.00 44 1013.6
20260506142803 56 41 0.0 1.0 0.00 0.00 0.00 45 1013.6
20260506142306 56 41 1.0 3.0 0.00 0.00 0.00 47 1013.6
20260506141804 55 278 0.0 2.0 0.00 0.00 0.00 49 1013.5
20260506141304 54 278 0.0 0.0 0.00 0.00 0.00 50 1013.5
20260506140304 53 278 0.0 1.0 0.00 0.00 0.00 51 1013.3
20260506135804 53 278 1.0 2.0 0.00 0.00 0.00 51 1013.3
20260506135306 52 278 1.0 3.0 0.00 0.00 0.00 52 1013.2
20260506134804 52 278 1.0 2.0 0.00 0.00 0.00 52 1013.1
20260506133804 51 278 2.0 3.0 0.00 0.00 0.00 53 1012.9
20260506133303 51 278 2.0 3.0 0.00 0.00 0.00 54 1012.9
20260506132804 50 278 1.0 2.0 0.00 0.00 0.00 54 1012.8
20260506132307 50 278 2.0 3.0 0.00 0.00 0.00 54 1012.7
20260506131804 50 174 0.0 1.0 0.00 0.00 0.00 54 1012.7
20260506131304 50 174 1.0 2.0 0.00 0.00 0.00 54 1012.7
20260506130804 50 174 0.0 1.0 0.00 0.00 0.00 54 1012.7
20260506130303 50 174 1.0 2.0 0.00 0.00 0.00 53 1012.6
20260506125803 50 174 2.0 3.0 0.00 0.00 0.00 53 1012.5
20260506125305 50 161 2.0 3.0 0.00 0.00 0.00 53 1012.5
20260506124804 50 161 3.0 3.0 0.00 0.00 0.00 53 1012.5
20260506124304 50 259 2.0 3.0 0.00 0.00 0.00 53 1012.4
20260506123804 50 259 2.0 3.0 0.00 0.00 0.00 53 1012.4
20260506123303 50 259 3.0 3.0 0.00 0.00 0.00 54 1012.3
20260506122803 50 259 2.0 3.0 0.00 0.00 0.00 54 1012.3
20260506122306 49 259 2.0 3.0 0.00 0.00 0.00 55 1012.2
20260506121303 49 232 3.0 3.0 0.00 0.00 0.00 54 1012.2
20260506120304 50 266 1.0 2.0 0.00 0.00 0.00 52 1012.2
20260506115803 50 266 1.0 2.0 0.00 0.00 0.00 53 1012.1
20260506115306 50 266 0.0 2.0 0.00 0.00 0.00 53 1012.1
20260506114803 50 266 2.0 3.0 0.00 0.00 0.00 53 1012.1
20260506114304 50 266 2.0 3.0 0.00 0.00 0.00 53 1012.1
20260506113804 50 157 0.0 1.0 0.00 0.00 0.00 53 1012.0
20260506113304 50 157 1.0 3.0 0.00 0.00 0.00 53 1011.9
20260506112804 50 157 3.0 5.0 0.00 0.00 0.00 53 1011.9
20260506112306 50 182 2.0 3.0 0.00 0.00 0.00 52 1011.9
20260506111804 50 216 0.0 0.0 0.00 0.00 0.00 52 1011.9
20260506111304 50 216 2.0 3.0 0.00 0.00 0.00 52 1011.9
20260506110304 51 216 3.0 3.0 0.00 0.00 0.00 50 1011.9
20260506105804 51 258 1.0 2.0 0.00 0.00 0.00 50 1011.8
20260506105305 51 258 2.0 3.0 0.00 0.00 0.00 50 1011.8
20260506104803 52 258 1.0 3.0 0.00 0.00 0.00 50 1011.8
20260506104303 52 258 2.0 3.0 0.00 0.00 0.00 50 1011.7
20260506103804 52 229 0.0 0.0 0.00 0.00 0.00 50 1011.7
20260506103304 52 229 0.0 0.0 0.00 0.00 0.00 50 1011.8
20260506102804 52 229 0.0 0.0 0.00 0.00 0.00 49 1011.6
20260506102305 52 229 0.0 1.0 0.00 0.00 0.00 50 1011.6
20260506101304 52 229 1.0 3.0 0.00 0.00 0.00 49 1011.6
20260506100803 52 257 2.0 3.0 0.00 0.00 0.00 49 1011.5
20260506100304 52 302 2.0 3.0 0.00 0.00 0.00 50 1011.5
20260506095804 52 300 2.0 3.0 0.00 0.00 0.00 49 1011.4
20260506094804 52 223 0.0 2.0 0.00 0.00 0.00 49 1011.3
20260506093803 52 219 3.0 6.0 0.00 0.00 0.00 50 1011.2
20260506093304 52 222 4.0 6.0 0.00 0.00 0.00 50 1011.3
20260506092804 52 201 4.0 5.0 0.00 0.00 0.00 50 1011.3
20260506092306 52 208 3.0 5.0 0.00 0.00 0.00 49 1011.2
20260506091804 52 214 3.0 3.0 0.00 0.00 0.00 49 1011.3
20260506090804 53 214 2.0 3.0 0.00 0.00 0.00 49 1011.4
20260506090304 53 214 0.0 3.0 0.00 0.00 0.00 49 1011.5
20260506085804 53 214 1.0 5.0 0.00 0.00 0.00 49 1011.6
20260506084804 53 186 3.0 3.0 0.00 0.00 0.00 49 1011.6
20260506084304 53 226 1.0 2.0 0.00 0.00 0.00 49 1011.6
20260506083804 53 227 0.0 1.0 0.00 0.00 0.00 49 1011.5
20260506083304 53 227 0.0 2.0 0.00 0.00 0.00 49 1011.6
20260506082305 53 214 3.0 5.0 0.00 0.00 0.00 49 1011.5
20260506081803 53 167 3.0 5.0 0.00 0.00 0.00 49 1011.5
20260506081304 53 170 4.0 5.0 0.00 0.00 0.00 50 1011.5
20260506080304 53 183 3.0 5.0 0.00 0.00 0.00 50 1011.6
20260506073304 52 206 3.0 5.0 0.00 0.00 0.00 49 1011.6
20260506072804 52 34 5.0 5.0 0.00 0.00 0.00 49 1011.5
20260506072305 53 33 1.0 3.0 0.00 0.00 0.00 49 1011.5
20260506071804 53 33 3.0 3.0 0.00 0.00 0.00 48 1011.5
20260506071303 53 33 2.0 3.0 0.00 0.00 0.00 48 1011.5
20260506070804 53 33 1.0 2.0 0.00 0.00 0.00 48 1011.5
20260506070303 54 33 2.0 3.0 0.00 0.00 0.00 47 1011.4